Theta_e
324 323 322 320 320 319 318 318 317 317 316 311 310 307 301 299 299 298 298 299 301 303 308 308 307 307 305 304 304 304 303 303 304 304 301 301 300 300 299 298 300 302 303
324 324 323 321 320 319 318 318 317 316 311 310 309 303 299 298 298 298 298 299 302 303 307 306 305 306 305 304 304 303 303 303 303 303 300 299 299 299 298 298 300 298 299
324 325 324 321 320 319 318 317 317 312 310 309 304 299 299 298 298 298 299 300 301 303 305 304 303 303 301 303 303 302 302 302 301 302 302 302 301 299 300 299 300 301 301
326 325 322 320 320 319 318 317 312 310 309 306 300 299 299 299 298 299 300 301 302 305 304 303 301 299 298 298 299 300 300 299 299 300 300 300 300 299 299 298 299 300 301
325 322 321 321 320 318 316 312 310 310 308 301 300 299 299 298 299 297 298 299 300 300 302 300 298 297 296 296 296 297 298 298 298 299 299 298 298 298 298 297 297 298 299
321 321 321 320 318 313 311 310 310 308 302 300 299 299 298 298 298 297 297 297 298 297 297 296 296 295 295 294 294 294 296 296 296 296 296 296 296 296 296 296 297 297 297
321 321 319 315 311 311 311 310 308 303 302 300 299 299 298 298 299 298 298 297 297 295 296 296 295 294 293 293 293 293 294 295 295 295 295 294 295 295 294 294 295 295 296
320 318 313 311 311 311 310 307 305 303 302 302 301 300 299 298 298 297 299 298 296 296 295 296 295 294 293 293 293 293 292 291 292 293 293 293 293 294 294 294 294 295 295
316 313 312 311 312 311 307 306 305 304 303 303 302 300 300 299 299 299 299 297 296 296 296 296 295 294 293 292 292 291 290 290 289 291 292 292 293 293 293 293 294 294 294
313 312 312 312 311 307 306 306 305 304 303 301 299 297 299 299 299 299 297 297 297 296 295 295 295 294 293 292 292 291 290 289 288 289 290 291 291 292 292 292 292 293 294
313 312 312 311 307 306 306 305 305 303 299 296 295 295 296 297 298 298 297 296 296 296 295 294 294 294 293 292 292 291 290 289 289 289 288 290 290 290 291 291 291 292 292
313 312 311 308 307 306 304 304 301 298 295 293 293 293 295 295 296 298 297 296 294 294 294 294 294 293 293 292 290 289 289 289 289 289 288 288 289 289 290 290 290 290 291
313 312 310 307 305 303 305 301 299 297 293 292 293 294 294 295 297 296 295 295 294 294 294 293 292 291 291 290 289 288 288 288 288 288 287 287 287 287 288 288 288 289 289
313 311 309 310 304 303 300 299 297 293 292 293 295 295 293 293 294 294 294 294 294 293 292 291 290 289 289 288 287 286 285 285 284 284 283 283 284 285 286 287 287 288 289
311 308 307 305 305 300 301 295 294 293 293 295 294 294 291 292 293 293 294 293 292 292 290 289 288 288 287 285 284 283 283 283 283 283 283 283 285 285 286 286 287 287 288
311 310 307 306 304 301 297 296 294 293 294 294 294 293 291 292 293 292 291 290 290 289 288 288 287 286 285 283 283 282 282 282 282 282 282 282 283 284 285 285 286 286 287
310 307 306 304 300 298 297 296 294 293 293 294 294 293 291 291 291 290 290 289 289 288 287 286 285 285 283 283 282 281 282 282 282 281 281 282 282 283 282 283 284 285 285
306 304 304 299 298 297 297 295 293 293 294 294 294 293 291 291 290 290 289 288 287 287 286 286 285 284 283 282 281 280 281 281 281 281 281 281 281 281 281 282 283 284 284
303 301 300 298 297 296 295 294 293 294 294 294 294 293 291 291 290 290 289 286 286 286 285 284 284 283 282 281 280 280 281 281 281 280 280 281 282 282 281 281 282 283 283
301 300 298 297 296 296 295 294 294 294 293 294 294 293 292 291 290 288 286 286 286 285 284 284 283 282 281 281 280 280 281 280 279 280 281 282 282 283 282 282 282 282 282
298 297 296 297 296 296 294 294 294 294 294 294 293 293 292 290 291 289 286 285 285 285 284 283 282 282 281 280 279 279 279 279 281 281 281 282 282 282 283 283 283 283 283
297 299 299 299 296 294 294 294 294 294 293 293 293 293 292 291 289 288 287 285 285 284 283 283 282 281 280 279 279 279 279 280 280 281 281 281 281 282 283 283 284 284 283
300 299 297 295 294 294 293 293 293 293 293 292 293 292 291 291 290 288 286 285 285 284 283 282 281 280 280 279 279 279 279 280 280 280 280 281 282 284 284 284 284 284 284
297 295 294 293 293 293 293 293 293 293 292 292 292 292 291 290 289 287 285 285 284 284 283 282 280 280 280 279 279 279 279 279 280 280 280 280 282 283 284 284 284 284 285
293 293 292 292 292 292 292 291 291 292 292 292 291 291 289 289 288 286 284 284 284 283 282 281 280 280 279 279 278 278 278 279 279 279 280 281 281 282 284 284 285 284 284
292 291 291 291 291 290 290 291 291 292 292 291 290 290 289 288 287 286 285 284 283 282 281 281 280 280 280 279 279 278 278 278 278 278 280 280 281 282 283 283 284 284 285
Wind_Speed
11 12 9 8 8 8 7 5 5 6 9 10 13 16 15 13 13 15 15 12 10 5 2 1 4 4 7 8 10 13 16 18 16 17 23 20 20 22 22 22 21 22 23
9 10 11 11 10 10 9 8 8 8 10 12 15 14 13 12 12 13 11 9 8 3 4 2 1 2 4 5 5 9 11 11 14 18 25 28 25 26 29 28 24 22 23
9 11 11 13 13 12 10 9 10 10 10 13 13 12 11 12 13 14 11 7 5 6 8 7 3 3 7 4 7 10 10 12 14 16 17 18 20 25 21 21 22 21 21
14 14 15 14 12 10 10 11 11 10 12 14 15 14 13 15 11 9 10 7 0 4 7 8 8 8 10 10 8 8 11 15 14 15 17 17 19 19 19 22 19 19 19
18 17 15 13 12 11 12 11 10 12 14 15 15 15 17 12 4 12 9 7 4 4 7 10 12 13 14 12 11 11 12 14 15 15 15 17 18 18 19 19 20 19 19
18 17 15 14 13 11 10 9 12 14 14 15 15 16 19 7 5 7 4 13 12 14 16 17 17 17 16 16 16 13 13 15 16 16 16 17 16 18 19 19 20 20 19
16 17 16 13 10 8 9 12 14 13 14 15 17 20 17 4 11 9 17 12 21 16 16 17 18 19 19 18 18 19 16 15 16 17 18 19 18 18 17 19 20 22 22
16 16 14 11 10 10 12 13 13 13 15 16 18 21 7 10 13 11 22 19 11 8 14 21 21 21 21 21 21 22 23 22 16 17 19 19 19 18 19 20 22 22 24
14 14 13 12 12 13 12 13 15 16 16 18 20 16 7 5 16 15 14 13 8 16 21 21 23 22 21 22 21 22 22 22 20 17 16 16 17 19 21 23 23 22 25
14 16 15 14 14 13 12 13 15 18 19 19 19 17 15 15 14 12 14 15 22 21 18 23 23 21 22 22 23 23 22 21 21 18 15 17 18 20 21 23 25 26 25
18 18 15 15 14 13 12 13 18 19 21 22 20 18 17 17 18 20 25 20 23 25 22 21 21 22 22 24 26 27 25 25 25 23 25 20 20 22 23 25 27 29 29
20 19 18 16 15 12 9 16 19 21 23 22 21 19 19 19 20 19 22 26 30 28 25 21 18 20 22 24 24 23 24 25 24 26 27 26 25 26 29 31 32 33 33
24 23 20 16 13 12 20 18 20 22 21 20 19 17 18 18 16 20 23 27 27 25 23 16 13 16 19 20 22 22 24 26 29 32 36 38 38 34 34 34 33 32 32
29 29 24 23 18 19 16 17 18 22 22 19 18 19 22 21 21 19 20 20 20 16 19 11 16 15 14 25 29 31 32 35 36 37 38 38 34 29 27 26 26 26 28
27 21 19 19 23 19 23 14 16 18 17 16 19 22 22 18 15 15 16 18 18 19 23 17 17 24 30 32 32 31 31 32 31 31 30 28 24 24 25 25 25 25 26
27 27 26 22 25 17 10 14 17 17 17 19 21 25 20 16 15 18 19 17 16 17 25 27 29 30 31 31 29 30 29 28 26 25 25 25 24 23 24 25 25 25 25
32 28 25 17 14 9 12 16 19 18 19 20 22 24 20 17 17 17 17 18 20 22 26 32 31 32 32 31 31 28 27 26 25 24 24 24 26 26 25 25 26 25 25
23 20 15 12 10 11 14 18 18 18 19 20 22 23 19 18 18 19 20 21 23 22 24 30 32 31 30 30 31 28 26 24 23 22 24 27 27 28 28 25 24 24 24
15 10 11 8 9 14 18 18 20 19 21 23 23 21 19 19 20 21 23 23 22 23 25 27 32 33 32 31 30 28 25 23 23 26 22 16 17 20 21 23 23 25 26
12 10 6 9 10 18 22 21 20 21 22 23 25 23 21 20 20 22 22 21 22 22 23 26 29 31 32 30 29 27 30 30 31 24 14 16 16 17 17 18 23 26 26
9 9 6 12 18 24 20 20 20 22 22 24 23 24 22 22 24 23 22 21 21 22 23 25 28 31 31 29 27 28 30 30 26 18 17 20 19 19 18 18 20 21 23
7 15 23 23 21 19 20 21 22 24 23 23 23 24 24 23 24 22 23 22 21 22 23 25 27 29 28 26 27 26 24 25 28 23 28 29 24 23 21 18 19 19 19
22 21 15 19 20 21 21 20 22 23 24 22 24 26 25 24 28 21 22 22 23 22 24 25 28 25 25 23 24 27 23 23 26 27 29 34 22 26 23 21 20 19 15
12 12 16 22 22 20 22 22 23 24 22 21 25 29 23 25 24 19 22 23 22 22 23 24 24 21 20 21 21 22 24 27 30 29 24 30 21 26 23 17 11 12 10
14 17 19 20 22 25 25 26 21 21 21 23 24 25 23 23 22 20 22 22 23 22 22 21 19 18 17 17 17 23 24 25 31 31 22 15 26 28 25 21 10 9 14
18 20 22 22 24 26 25 25 22 23 23 26 25 26 25 23 21 20 21 22 24 21 20 17 15 15 15 16 17 18 19 23 26 28 9 26 26 22 29 25 28 20 17
Wind_Direction
177 184 194 203 211 224 226 244 266 296 309 316 325 334 332 326 326 322 323 323 320 350 307 27 31 12 4 15 17 15 0 345 0 348 339 333 326 317 311 302 297 296 295
206 209 212 215 213 220 232 242 262 298 304 319 331 332 329 324 328 325 332 306 298 292 201 178 324 65 42 24 23 8 4 3 352 341 332 327 323 320 319 316 311 298 294
233 229 225 219 220 224 232 257 282 295 315 322 326 336 347 348 342 342 350 354 278 244 224 243 275 268 309 326 334 334 333 339 333 336 334 332 327 325 329 322 319 323 310
232 233 219 224 226 235 251 267 281 306 315 324 340 354 354 345 333 343 348 6 327 232 238 248 275 290 299 300 312 321 321 317 329 327 318 319 324 323 320 322 326 328 330
229 225 229 235 237 243 255 272 303 311 319 337 348 353 352 351 358 333 322 334 337 281 262 277 294 301 300 298 303 317 322 323 323 318 315 310 310 312 314 321 325 323 324
227 224 225 229 233 240 266 300 307 314 335 343 345 346 344 314 301 311 356 330 316 310 303 303 307 306 305 307 307 311 321 318 318 315 316 317 308 301 306 313 318 319 320
222 223 222 228 237 264 292 298 309 327 335 335 336 336 345 273 294 241 328 312 327 312 308 308 313 309 308 305 303 306 308 309 307 305 306 305 305 303 305 309 313 313 312
214 218 228 242 261 280 294 303 314 319 322 328 333 336 336 298 283 262 307 314 321 303 309 308 309 302 300 298 298 300 304 307 306 302 298 296 296 296 300 303 305 304 305
219 230 243 253 268 285 293 306 306 307 315 322 322 318 310 279 300 299 296 307 315 305 303 299 302 297 298 297 300 309 311 310 305 301 297 295 294 293 295 298 298 297 297
227 237 242 255 270 279 292 296 306 314 319 317 313 307 298 293 296 295 301 296 298 313 298 295 295 295 303 300 305 309 304 301 305 302 300 296 294 293 292 292 292 293 292
227 234 245 259 262 265 278 301 311 305 307 307 305 302 297 291 289 291 297 300 303 310 299 300 295 283 293 293 297 299 299 300 302 296 300 295 292 289 288 289 290 289 288
229 227 237 241 244 256 285 299 300 306 306 304 303 302 299 298 295 289 295 305 310 306 298 293 283 283 287 293 301 298 293 295 287 287 289 286 289 288 286 286 286 284 281
223 226 230 235 232 248 293 292 305 300 305 308 307 310 311 308 289 290 294 298 299 303 297 298 280 284 295 303 303 298 292 287 284 284 285 286 287 288 286 285 282 280 277
222 223 227 237 265 292 281 283 296 301 300 306 314 316 311 301 296 296 288 294 296 288 300 304 306 302 293 304 300 297 294 290 289 289 288 290 291 290 289 286 284 280 276
219 222 231 258 269 274 288 312 303 303 306 308 312 321 318 313 308 306 298 301 298 297 302 303 304 304 308 308 307 306 304 300 297 296 296 296 293 287 284 284 281 278 274
235 240 252 259 280 300 309 306 307 307 307 312 319 327 321 312 299 301 304 305 299 294 296 305 307 310 312 314 314 313 308 305 303 299 295 293 291 287 283 281 278 275 275
239 252 264 277 273 289 293 310 315 309 305 309 319 327 316 305 301 300 299 297 295 296 297 302 307 311 313 314 313 312 309 309 306 303 299 295 292 290 287 283 279 274 273
246 255 253 257 280 277 305 316 312 307 306 310 318 320 311 306 306 300 297 296 296 295 299 304 307 311 312 315 315 313 313 309 307 304 303 301 298 291 276 274 279 275 272
249 251 271 267 285 311 314 313 314 311 312 311 310 310 305 300 301 295 295 295 293 297 304 306 309 312 314 318 317 316 317 314 310 312 314 312 311 314 296 271 271 273 272
242 265 241 269 299 296 304 306 306 306 309 305 307 303 296 291 294 296 301 295 296 300 302 304 306 310 314 319 318 322 319 321 317 319 317 309 322 318 308 291 281 278 277
187 204 230 282 293 299 292 298 304 306 302 296 295 300 285 282 293 296 300 297 296 299 300 303 307 309 313 317 320 320 318 320 322 325 321 310 319 311 312 298 288 282 278
216 280 277 287 292 281 296 299 301 301 296 291 286 294 303 289 286 291 298 294 296 299 300 303 305 308 311 316 318 319 323 324 322 328 323 316 322 315 319 301 295 289 283
293 289 303 285 287 284 292 296 297 295 296 289 283 287 294 287 284 289 294 292 295 296 299 301 305 307 308 315 316 316 318 317 313 310 317 312 327 325 323 301 290 287 279
295 292 286 286 287 292 297 297 295 291 288 285 277 291 289 292 287 291 289 286 288 291 294 296 298 302 306 315 315 313 308 302 300 304 315 308 325 330 342 339 307 281 265
289 293 288 290 293 295 297 295 286 284 283 279 292 292 287 284 287 289 287 283 284 288 292 296 296 301 303 309 313 307 303 304 308 312 325 306 322 324 330 345 346 318 275
291 288 291 294 295 296 296 295 291 287 283 287 286 289 278 278 283 285 291 285 283 290 293 290 291 294 295 306 313 315 306 302 305 313 294 314 317 328 324 322 320 322 297